Year,Month,Day,Hour,Minute,Value (Times are PST for temperature in C)
2016,09,21,00,00,9.40
2016,09,21,00,01,9.40
2016,09,21,00,02,9.40
2016,09,21,00,03,9.40
2016,09,21,00,04,9.40
2016,09,21,00,05,9.40
2016,09,21,00,06,9.40
2016,09,21,00,07,9.40
2016,09,21,00,08,9.30
2016,09,21,00,09,9.30
2016,09,21,00,10,9.30
2016,09,21,00,11,9.20
2016,09,21,00,12,9.20
2016,09,21,00,13,9.20
2016,09,21,00,14,9.20
2016,09,21,00,15,9.20
2016,09,21,00,16,9.10
2016,09,21,00,17,9.10
2016,09,21,00,18,9.10
2016,09,21,00,19,9.10
2016,09,21,00,20,9.10
2016,09,21,00,21,9.10
2016,09,21,00,22,9.10
2016,09,21,00,23,9.10
2016,09,21,00,24,9.10
2016,09,21,00,25,9.10
2016,09,21,00,26,9.10
2016,09,21,00,27,9.10
2016,09,21,00,28,9.10
2016,09,21,00,29,9.10
2016,09,21,00,30,9.10
2016,09,21,00,31,9.10
2016,09,21,00,32,9.10
2016,09,21,00,33,9.10
2016,09,21,00,34,9.10
2016,09,21,00,35,9.10
2016,09,21,00,36,9.10
2016,09,21,00,37,9.10
2016,09,21,00,38,9.10
2016,09,21,00,39,9.00
2016,09,21,00,40,9.00
2016,09,21,00,41,9.00
2016,09,21,00,42,9.00
2016,09,21,00,43,8.90
2016,09,21,00,44,8.90
2016,09,21,00,45,8.90
2016,09,21,00,46,8.90
2016,09,21,00,47,8.90
2016,09,21,00,48,8.90
2016,09,21,00,49,8.90
2016,09,21,00,50,8.80
2016,09,21,00,51,8.80
2016,09,21,00,52,8.80
2016,09,21,00,53,8.80
2016,09,21,00,54,8.80
2016,09,21,00,55,8.80
2016,09,21,00,56,8.80
2016,09,21,00,57,8.80
2016,09,21,00,58,8.80
2016,09,21,00,59,8.80
2016,09,21,01,00,8.80
2016,09,21,01,01,8.70
2016,09,21,01,02,8.70
2016,09,21,01,03,8.60
2016,09,21,01,04,8.60
2016,09,21,01,05,8.60
2016,09,21,01,06,8.60
2016,09,21,01,07,8.60
2016,09,21,01,08,8.60
2016,09,21,01,09,8.60
2016,09,21,01,10,8.60
2016,09,21,01,11,8.60
2016,09,21,01,12,8.60
2016,09,21,01,13,8.70
2016,09,21,01,14,8.70
2016,09,21,01,15,8.70
2016,09,21,01,16,8.70
2016,09,21,01,17,8.70
2016,09,21,01,18,8.60
2016,09,21,01,19,8.60
2016,09,21,01,20,8.60
2016,09,21,01,21,8.70
2016,09,21,01,22,8.70
2016,09,21,01,23,8.70
2016,09,21,01,24,8.70
2016,09,21,01,25,8.70
2016,09,21,01,26,8.70
2016,09,21,01,27,8.70
2016,09,21,01,28,8.60
2016,09,21,01,29,8.60
2016,09,21,01,30,8.50
2016,09,21,01,31,8.50
2016,09,21,01,32,8.50
2016,09,21,01,33,8.40
2016,09,21,01,34,8.40
2016,09,21,01,35,8.40
2016,09,21,01,36,8.30
2016,09,21,01,37,8.30
2016,09,21,01,38,8.30
2016,09,21,01,39,8.30
2016,09,21,01,40,8.30
2016,09,21,01,41,8.30
2016,09,21,01,42,8.30
2016,09,21,01,43,8.20
2016,09,21,01,44,8.20
2016,09,21,01,45,8.20
2016,09,21,01,46,8.20
2016,09,21,01,47,8.20
2016,09,21,01,48,8.20
2016,09,21,01,49,8.20
2016,09,21,01,50,8.20
2016,09,21,01,51,8.20
2016,09,21,01,52,8.20
2016,09,21,01,53,8.20
2016,09,21,01,54,8.20
2016,09,21,01,55,8.30
2016,09,21,01,56,8.20
2016,09,21,01,57,8.20
2016,09,21,01,58,8.20
2016,09,21,01,59,8.20
2016,09,21,02,00,8.20
2016,09,21,02,01,8.20
2016,09,21,02,02,8.20
2016,09,21,02,03,8.20
2016,09,21,02,04,8.20
2016,09,21,02,05,8.20
2016,09,21,02,06,8.10
2016,09,21,02,07,8.10
2016,09,21,02,08,8.10
2016,09,21,02,09,8.10
2016,09,21,02,10,8.10
2016,09,21,02,11,8.00
2016,09,21,02,12,8.00
2016,09,21,02,13,8.00
2016,09,21,02,14,8.00
2016,09,21,02,15,8.00
2016,09,21,02,16,8.00
2016,09,21,02,17,8.00
2016,09,21,02,18,8.00
2016,09,21,02,19,8.00
2016,09,21,02,20,8.00
2016,09,21,02,21,7.90
2016,09,21,02,22,7.90
2016,09,21,02,23,7.90
2016,09,21,02,24,7.90
2016,09,21,02,25,7.90
2016,09,21,02,26,7.90
2016,09,21,02,27,7.90
2016,09,21,02,28,7.80
2016,09,21,02,29,7.80
2016,09,21,02,30,7.80
2016,09,21,02,31,7.80
2016,09,21,02,32,7.80
2016,09,21,02,33,7.80
2016,09,21,02,34,7.80
2016,09,21,02,35,7.80
2016,09,21,02,36,7.70
2016,09,21,02,37,7.70
2016,09,21,02,38,7.70
2016,09,21,02,39,7.70
2016,09,21,02,40,7.70
2016,09,21,02,41,7.70
2016,09,21,02,42,7.70
2016,09,21,02,43,7.70
2016,09,21,02,44,7.70
2016,09,21,02,45,7.70
2016,09,21,02,46,7.70
2016,09,21,02,47,7.70
2016,09,21,02,48,7.70
2016,09,21,02,49,7.70
2016,09,21,02,50,7.70
2016,09,21,02,51,7.70
2016,09,21,02,52,7.70
2016,09,21,02,53,7.70
2016,09,21,02,54,7.70
2016,09,21,02,55,7.70
2016,09,21,02,56,7.70
2016,09,21,02,57,7.70
2016,09,21,02,58,7.70
2016,09,21,02,59,7.70
2016,09,21,03,00,7.70
2016,09,21,03,01,7.70
2016,09,21,03,02,7.60
2016,09,21,03,03,7.60
2016,09,21,03,04,7.60
2016,09,21,03,05,7.60
2016,09,21,03,06,7.60
2016,09,21,03,07,7.60
2016,09,21,03,08,7.60
2016,09,21,03,09,7.60
2016,09,21,03,10,7.60
2016,09,21,03,11,7.50
2016,09,21,03,12,7.50
2016,09,21,03,13,7.50
2016,09,21,03,14,7.50
2016,09,21,03,15,7.40
2016,09,21,03,16,7.40
2016,09,21,03,17,7.40
2016,09,21,03,18,7.40
2016,09,21,03,19,7.40
2016,09,21,03,20,7.40
2016,09,21,03,21,7.40
2016,09,21,03,22,7.40
2016,09,21,03,23,7.40
2016,09,21,03,24,7.40
2016,09,21,03,25,7.40
2016,09,21,03,26,7.50
2016,09,21,03,27,7.50
2016,09,21,03,28,7.50
2016,09,21,03,29,7.60
2016,09,21,03,30,7.60
2016,09,21,03,31,7.60
2016,09,21,03,32,7.60
2016,09,21,03,33,7.60
2016,09,21,03,34,7.60
2016,09,21,03,35,7.60
2016,09,21,03,36,7.60
2016,09,21,03,37,7.60
2016,09,21,03,38,7.60
2016,09,21,03,39,7.60
2016,09,21,03,40,7.60
2016,09,21,03,41,7.60
2016,09,21,03,42,7.60
2016,09,21,03,43,7.60
2016,09,21,03,44,7.60
2016,09,21,03,45,7.50
2016,09,21,03,46,7.50
2016,09,21,03,47,7.50
2016,09,21,03,48,7.50
2016,09,21,03,49,7.40
2016,09,21,03,50,7.40
2016,09,21,03,51,7.40
2016,09,21,03,52,7.40
2016,09,21,03,53,7.40
2016,09,21,03,54,7.40
2016,09,21,03,55,7.40
2016,09,21,03,56,7.40
2016,09,21,03,57,7.40
2016,09,21,03,58,7.40
2016,09,21,03,59,7.40
2016,09,21,04,00,7.40
2016,09,21,04,01,7.40
2016,09,21,04,02,7.40
2016,09,21,04,03,7.40
2016,09,21,04,04,7.40
2016,09,21,04,05,7.40
2016,09,21,04,06,7.40
2016,09,21,04,07,7.40
2016,09,21,04,08,7.40
2016,09,21,04,09,7.40
2016,09,21,04,10,7.40
2016,09,21,04,11,7.40
2016,09,21,04,12,7.40
2016,09,21,04,13,7.40
2016,09,21,04,14,7.40
2016,09,21,04,15,7.40
2016,09,21,04,16,7.40
2016,09,21,04,17,7.40
2016,09,21,04,18,7.30
2016,09,21,04,19,7.30
2016,09,21,04,20,7.30
2016,09,21,04,21,7.30
2016,09,21,04,22,7.30
2016,09,21,04,23,7.20
2016,09,21,04,24,7.20
2016,09,21,04,25,7.20
2016,09,21,04,26,7.20
2016,09,21,04,27,7.20
2016,09,21,04,28,7.20
2016,09,21,04,29,7.20
2016,09,21,04,30,7.20
2016,09,21,04,31,7.20
2016,09,21,04,32,7.20
2016,09,21,04,33,7.20
2016,09,21,04,34,7.20
2016,09,21,04,35,7.20
2016,09,21,04,36,7.20
2016,09,21,04,37,7.10
2016,09,21,04,38,7.10
2016,09,21,04,39,7.10
2016,09,21,04,40,7.10
2016,09,21,04,41,7.10
2016,09,21,04,42,7.00
2016,09,21,04,43,7.00
2016,09,21,04,44,7.00
2016,09,21,04,45,6.90
2016,09,21,04,46,6.90
2016,09,21,04,47,6.90
2016,09,21,04,48,6.90
2016,09,21,04,49,6.90
2016,09,21,04,50,6.90
2016,09,21,04,51,6.90
2016,09,21,04,52,6.90
2016,09,21,04,53,6.90
2016,09,21,04,54,6.90
2016,09,21,04,55,6.90
2016,09,21,04,56,6.90
2016,09,21,04,57,6.90
2016,09,21,04,58,6.90
2016,09,21,04,59,6.90
2016,09,21,05,00,6.90
2016,09,21,05,01,6.90
2016,09,21,05,02,7.00
2016,09,21,05,03,7.00
2016,09,21,05,04,7.00
2016,09,21,05,05,7.10
2016,09,21,05,06,7.10
2016,09,21,05,07,7.10
2016,09,21,05,08,7.00
2016,09,21,05,09,7.00
2016,09,21,05,10,7.00
2016,09,21,05,11,7.00
2016,09,21,05,12,7.00
2016,09,21,05,13,6.90
2016,09,21,05,14,6.80
2016,09,21,05,15,6.80
2016,09,21,05,16,6.80
2016,09,21,05,17,6.70
2016,09,21,05,18,6.70
2016,09,21,05,19,6.70
2016,09,21,05,20,6.70
2016,09,21,05,21,6.70
2016,09,21,05,22,6.70
2016,09,21,05,23,6.70
2016,09,21,05,24,6.70
2016,09,21,05,25,6.70
2016,09,21,05,26,6.70
2016,09,21,05,27,6.70
2016,09,21,05,28,6.70
2016,09,21,05,29,6.70
2016,09,21,05,30,6.70
2016,09,21,05,31,6.70
2016,09,21,05,32,6.70
2016,09,21,05,33,6.70
2016,09,21,05,34,6.70
2016,09,21,05,35,6.70
2016,09,21,05,36,6.60
2016,09,21,05,37,6.60
2016,09,21,05,38,6.60
2016,09,21,05,39,6.60
2016,09,21,05,40,6.60
2016,09,21,05,41,6.60
2016,09,21,05,42,6.60
2016,09,21,05,43,6.60
2016,09,21,05,44,6.60
2016,09,21,05,45,6.60
2016,09,21,05,46,6.60
2016,09,21,05,47,6.60
2016,09,21,05,48,6.60
2016,09,21,05,49,6.60
2016,09,21,05,50,6.60
2016,09,21,05,51,6.60
2016,09,21,05,52,6.60
2016,09,21,05,53,6.60
2016,09,21,05,54,6.60
2016,09,21,05,55,6.60
2016,09,21,05,56,6.70
2016,09,21,05,57,6.70
2016,09,21,05,58,6.60
2016,09,21,05,59,6.60
2016,09,21,06,00,6.60
2016,09,21,06,01,6.60
2016,09,21,06,02,6.60
2016,09,21,06,03,6.60
2016,09,21,06,04,6.60
2016,09,21,06,05,6.60
2016,09,21,06,06,6.60
2016,09,21,06,07,6.60
2016,09,21,06,08,6.50
2016,09,21,06,09,6.50
2016,09,21,06,10,6.50
2016,09,21,06,11,6.60
2016,09,21,06,12,6.60
2016,09,21,06,13,6.60
2016,09,21,06,14,6.60
2016,09,21,06,15,6.60
2016,09,21,06,16,6.60
2016,09,21,06,17,6.60
2016,09,21,06,18,6.60
2016,09,21,06,19,6.60
2016,09,21,06,20,6.60
2016,09,21,06,21,6.60
2016,09,21,06,22,6.60
2016,09,21,06,23,6.60
2016,09,21,06,24,6.50
2016,09,21,06,25,6.50
2016,09,21,06,26,6.50
2016,09,21,06,27,6.50
2016,09,21,06,28,6.50
2016,09,21,06,29,6.50
2016,09,21,06,30,6.40
2016,09,21,06,31,6.40
2016,09,21,06,32,6.40
2016,09,21,06,33,6.40
2016,09,21,06,34,6.40
2016,09,21,06,35,6.40
2016,09,21,06,36,6.30
2016,09,21,06,37,6.30
2016,09,21,06,38,6.30
2016,09,21,06,39,6.30
2016,09,21,06,40,6.30
2016,09,21,06,41,6.30
2016,09,21,06,42,6.30
2016,09,21,06,43,6.20
2016,09,21,06,44,6.20
2016,09,21,06,45,6.20
2016,09,21,06,46,6.20
2016,09,21,06,47,6.20
2016,09,21,06,48,6.30
2016,09,21,06,49,6.30
2016,09,21,06,50,6.30
2016,09,21,06,51,6.30
2016,09,21,06,52,6.20
2016,09,21,06,53,6.20
2016,09,21,06,54,6.30
2016,09,21,06,55,6.30
2016,09,21,06,56,6.30
2016,09,21,06,57,6.30
2016,09,21,06,58,6.20
2016,09,21,06,59,6.20
2016,09,21,07,00,6.20
2016,09,21,07,01,6.20
2016,09,21,07,02,6.20
2016,09,21,07,03,6.20
2016,09,21,07,04,6.20
2016,09,21,07,05,6.20
2016,09,21,07,06,6.20
2016,09,21,07,07,6.20
2016,09,21,07,08,6.20
2016,09,21,07,09,6.20
2016,09,21,07,10,6.20
2016,09,21,07,11,6.20
2016,09,21,07,12,6.30
2016,09,21,07,13,6.30
2016,09,21,07,14,6.30
2016,09,21,07,15,6.30
2016,09,21,07,16,6.20
2016,09,21,07,17,6.20
2016,09,21,07,18,6.20
2016,09,21,07,19,6.20
2016,09,21,07,20,6.20
2016,09,21,07,21,6.20
2016,09,21,07,22,6.20
2016,09,21,07,23,6.20
2016,09,21,07,24,6.10
2016,09,21,07,25,6.10
2016,09,21,07,26,6.10
2016,09,21,07,27,6.10
2016,09,21,07,28,6.00
2016,09,21,07,29,6.00
2016,09,21,07,30,6.00
2016,09,21,07,31,6.00
2016,09,21,07,32,6.00
2016,09,21,07,33,6.00
2016,09,21,07,34,5.90
2016,09,21,07,35,5.90
2016,09,21,07,36,5.90
2016,09,21,07,37,5.90
2016,09,21,07,38,5.90
2016,09,21,07,39,5.90
2016,09,21,07,40,5.90
2016,09,21,07,41,5.90
2016,09,21,07,42,5.90
2016,09,21,07,43,5.90
2016,09,21,07,44,5.90
2016,09,21,07,45,5.90
2016,09,21,07,46,5.90
2016,09,21,07,47,5.90
2016,09,21,07,48,5.90
2016,09,21,07,49,5.90
2016,09,21,07,50,5.90
2016,09,21,07,51,5.90
2016,09,21,07,52,5.90
2016,09,21,07,53,5.90
2016,09,21,07,54,6.00
2016,09,21,07,55,6.00
2016,09,21,07,56,6.00
2016,09,21,07,57,6.00
2016,09,21,07,58,6.00
2016,09,21,07,59,6.10
2016,09,21,08,00,6.10
2016,09,21,08,01,6.20
2016,09,21,08,02,6.30
2016,09,21,08,03,6.30
2016,09,21,08,04,6.30
2016,09,21,08,05,6.40
2016,09,21,08,06,6.50
2016,09,21,08,07,6.60
2016,09,21,08,08,6.60
2016,09,21,08,09,6.70
2016,09,21,08,10,6.70
2016,09,21,08,11,6.70
2016,09,21,08,12,6.70
2016,09,21,08,13,6.80
2016,09,21,08,14,6.80
2016,09,21,08,15,6.90
2016,09,21,08,16,7.00
2016,09,21,08,17,7.00
2016,09,21,08,18,7.10
2016,09,21,08,19,7.20
2016,09,21,08,20,7.30
2016,09,21,08,21,7.40
2016,09,21,08,22,7.50
2016,09,21,08,23,7.50
2016,09,21,08,24,7.60
2016,09,21,08,25,7.60
2016,09,21,08,26,7.60
2016,09,21,08,27,7.60
2016,09,21,08,28,7.60
2016,09,21,08,29,7.70
2016,09,21,08,30,7.80
2016,09,21,08,31,7.80
2016,09,21,08,32,7.80
2016,09,21,08,33,7.80
2016,09,21,08,34,7.90
2016,09,21,08,35,8.00
2016,09,21,08,36,8.00
2016,09,21,08,37,8.10
2016,09,21,08,38,8.10
2016,09,21,08,39,8.10
2016,09,21,08,40,8.20
2016,09,21,08,41,8.20
2016,09,21,08,42,8.30
2016,09,21,08,43,8.30
2016,09,21,08,44,8.30
2016,09,21,08,45,8.30
2016,09,21,08,46,8.30
2016,09,21,08,47,8.20
2016,09,21,08,48,8.20
2016,09,21,08,49,8.20
2016,09,21,08,50,8.20
2016,09,21,08,51,8.20
2016,09,21,08,52,8.20
2016,09,21,08,53,8.30
2016,09,21,08,54,8.30
2016,09,21,08,55,8.30
2016,09,21,08,56,8.40
2016,09,21,08,57,8.40
2016,09,21,08,58,8.50
2016,09,21,08,59,8.50
2016,09,21,09,00,8.50
2016,09,21,09,01,8.50
2016,09,21,09,02,8.60
2016,09,21,09,03,8.60
2016,09,21,09,04,8.70
2016,09,21,09,05,8.70
2016,09,21,09,06,8.70
2016,09,21,09,07,8.70
2016,09,21,09,08,8.70
2016,09,21,09,09,8.70
2016,09,21,09,10,8.70
2016,09,21,09,11,8.70
2016,09,21,09,12,8.70
2016,09,21,09,13,8.70
2016,09,21,09,14,8.70
2016,09,21,09,15,8.70
2016,09,21,09,16,8.70
2016,09,21,09,17,8.70
2016,09,21,09,18,8.70
2016,09,21,09,19,8.80
2016,09,21,09,20,8.80
2016,09,21,09,21,8.80
2016,09,21,09,22,8.80
2016,09,21,09,23,8.90
2016,09,21,09,24,8.90
2016,09,21,09,25,9.00
2016,09,21,09,26,9.00
2016,09,21,09,27,9.10
2016,09,21,09,28,9.10
2016,09,21,09,29,9.20
2016,09,21,09,30,9.30
2016,09,21,09,31,9.40
2016,09,21,09,32,9.50
2016,09,21,09,33,9.70
2016,09,21,09,34,9.80
2016,09,21,09,35,10.00
2016,09,21,09,36,10.10
2016,09,21,09,37,10.10
2016,09,21,09,38,10.20
2016,09,21,09,39,10.30
2016,09,21,09,40,10.30
2016,09,21,09,41,10.40
2016,09,21,09,42,10.50
2016,09,21,09,43,10.50
2016,09,21,09,44,10.60
2016,09,21,09,45,10.70
2016,09,21,09,46,10.80
2016,09,21,09,47,10.90
2016,09,21,09,48,11.10
2016,09,21,09,49,11.20
2016,09,21,09,50,11.30
2016,09,21,09,51,11.50
2016,09,21,09,52,11.50
2016,09,21,09,53,11.70
2016,09,21,09,54,11.80
2016,09,21,09,55,11.90
2016,09,21,09,56,12.00
2016,09,21,09,57,12.10
2016,09,21,09,58,12.10
2016,09,21,09,59,12.00
2016,09,21,10,00,11.90
2016,09,21,10,01,11.70
2016,09,21,10,02,11.60
2016,09,21,10,03,11.60
2016,09,21,10,04,11.50
2016,09,21,10,05,11.50
2016,09,21,10,06,11.40
2016,09,21,10,07,11.40
2016,09,21,10,08,11.40
2016,09,21,10,09,11.40
2016,09,21,10,10,11.40
2016,09,21,10,11,11.40
2016,09,21,10,12,11.40
2016,09,21,10,13,11.50
2016,09,21,10,14,11.50
2016,09,21,10,15,11.60
2016,09,21,10,16,11.60
2016,09,21,10,17,11.70
2016,09,21,10,18,11.80
2016,09,21,10,19,11.80
2016,09,21,10,20,11.80
2016,09,21,10,21,11.90
2016,09,21,10,22,11.90
2016,09,21,10,23,12.00
2016,09,21,10,24,12.10
2016,09,21,10,25,12.10
2016,09,21,10,26,12.20
2016,09,21,10,27,12.20
2016,09,21,10,28,12.30
2016,09,21,10,29,12.30
2016,09,21,10,30,12.30
2016,09,21,10,31,12.30
2016,09,21,10,32,12.40
2016,09,21,10,33,12.40
2016,09,21,10,34,12.40
2016,09,21,10,35,12.40
2016,09,21,10,36,12.50
2016,09,21,10,37,12.50
2016,09,21,10,38,12.60
2016,09,21,10,39,12.70
2016,09,21,10,40,12.70
2016,09,21,10,41,12.80
2016,09,21,10,42,12.80
2016,09,21,10,43,12.90
2016,09,21,10,44,12.90
2016,09,21,10,45,12.90
2016,09,21,10,46,13.00
2016,09,21,10,47,13.00
2016,09,21,10,48,13.10
2016,09,21,10,49,13.20
2016,09,21,10,50,13.20
2016,09,21,10,51,13.30
2016,09,21,10,52,13.30
2016,09,21,10,53,13.40
2016,09,21,10,54,13.40
2016,09,21,10,55,13.50
2016,09,21,10,56,13.70
2016,09,21,10,57,13.80
2016,09,21,10,58,13.90
2016,09,21,10,59,13.90
2016,09,21,11,00,14.00
2016,09,21,11,01,14.10
2016,09,21,11,02,14.20
2016,09,21,11,03,14.30
2016,09,21,11,04,14.40
2016,09,21,11,05,14.50
2016,09,21,11,06,14.60
2016,09,21,11,07,14.60
2016,09,21,11,08,14.70
2016,09,21,11,09,14.80
2016,09,21,11,10,14.80
2016,09,21,11,11,14.90
2016,09,21,11,12,15.00
2016,09,21,11,13,15.10
2016,09,21,11,14,15.10
2016,09,21,11,15,15.20
2016,09,21,11,16,15.20
2016,09,21,11,17,15.30
2016,09,21,11,18,15.40
2016,09,21,11,19,15.50
2016,09,21,11,20,15.60
2016,09,21,11,21,15.70
2016,09,21,11,22,15.70
2016,09,21,11,23,15.80
2016,09,21,11,24,15.90
2016,09,21,11,25,15.90
2016,09,21,11,26,15.90
2016,09,21,11,27,15.90
2016,09,21,11,28,15.90
2016,09,21,11,29,15.90
2016,09,21,11,30,15.90
2016,09,21,11,31,15.90
2016,09,21,11,32,15.90
2016,09,21,11,33,15.80
2016,09,21,11,34,15.80
2016,09,21,11,35,15.90
2016,09,21,11,36,16.00
2016,09,21,11,37,16.00
2016,09,21,11,38,16.10
2016,09,21,11,39,16.20
2016,09,21,11,40,16.20
2016,09,21,11,41,16.20
2016,09,21,11,42,16.20
2016,09,21,11,43,16.20
2016,09,21,11,44,16.20
2016,09,21,11,45,16.30
2016,09,21,11,46,16.30
2016,09,21,11,47,16.30
2016,09,21,11,48,16.30
2016,09,21,11,49,16.30
2016,09,21,11,50,16.30
2016,09,21,11,51,16.30
2016,09,21,11,52,16.30
2016,09,21,11,53,16.40
2016,09,21,11,54,16.40
2016,09,21,11,55,16.50
2016,09,21,11,56,16.60
2016,09,21,11,57,16.70
2016,09,21,11,58,16.70
2016,09,21,11,59,16.80
2016,09,21,12,00,16.80
2016,09,21,12,01,16.80
2016,09,21,12,02,16.90
2016,09,21,12,03,16.90
2016,09,21,12,04,16.90
2016,09,21,12,05,17.00
2016,09,21,12,06,17.00
2016,09,21,12,07,17.10
2016,09,21,12,08,17.20
2016,09,21,12,09,17.20
2016,09,21,12,10,17.30
2016,09,21,12,11,17.30
2016,09,21,12,12,17.30
2016,09,21,12,13,17.40
2016,09,21,12,14,17.40
2016,09,21,12,15,17.40
2016,09,21,12,16,17.40
2016,09,21,12,17,17.40
2016,09,21,12,18,17.40
2016,09,21,12,19,17.50
2016,09,21,12,20,17.50
2016,09,21,12,21,17.60
2016,09,21,12,22,17.70
2016,09,21,12,23,17.80
2016,09,21,12,24,17.80
2016,09,21,12,25,17.70
2016,09,21,12,26,17.70
2016,09,21,12,27,17.70
2016,09,21,12,28,17.70
2016,09,21,12,29,17.80
2016,09,21,12,30,17.80
2016,09,21,12,31,17.80
2016,09,21,12,32,17.90
2016,09,21,12,33,17.90
2016,09,21,12,34,17.90
2016,09,21,12,35,17.90
2016,09,21,12,36,17.90
2016,09,21,12,37,17.90
2016,09,21,12,38,17.90
2016,09,21,12,39,17.90
2016,09,21,12,40,18.00
2016,09,21,12,41,17.90
2016,09,21,12,42,17.90
2016,09,21,12,43,18.00
2016,09,21,12,44,18.00
2016,09,21,12,45,18.00
2016,09,21,12,46,18.00
2016,09,21,12,47,18.10
2016,09,21,12,48,18.10
2016,09,21,12,49,18.20
2016,09,21,12,50,18.30
2016,09,21,12,51,18.30
2016,09,21,12,52,18.40
2016,09,21,12,53,18.40
2016,09,21,12,54,18.50
2016,09,21,12,55,18.50
2016,09,21,12,56,18.40
2016,09,21,12,57,18.40
2016,09,21,12,58,18.40
2016,09,21,12,59,18.50
2016,09,21,13,00,18.60
2016,09,21,13,01,18.60
2016,09,21,13,02,18.50
2016,09,21,13,03,18.50
2016,09,21,13,04,18.40
2016,09,21,13,05,18.30
2016,09,21,13,06,18.20
2016,09,21,13,07,18.20
2016,09,21,13,08,18.20
2016,09,21,13,09,18.20
2016,09,21,13,10,18.20
2016,09,21,13,11,18.20
2016,09,21,13,12,18.20
2016,09,21,13,13,18.30
2016,09,21,13,14,18.30
2016,09,21,13,15,18.30
2016,09,21,13,16,18.30
2016,09,21,13,17,18.30
2016,09,21,13,18,18.40
2016,09,21,13,19,18.40
2016,09,21,13,20,18.50
2016,09,21,13,21,18.50
2016,09,21,13,22,18.50
2016,09,21,13,23,18.60
2016,09,21,13,24,18.60
2016,09,21,13,25,18.50
2016,09,21,13,26,18.50
2016,09,21,13,27,18.40
2016,09,21,13,28,18.40
2016,09,21,13,29,18.30
2016,09,21,13,30,18.30
2016,09,21,13,31,18.30
2016,09,21,13,32,18.30
2016,09,21,13,33,18.30
2016,09,21,13,34,18.40
2016,09,21,13,35,18.40
2016,09,21,13,36,18.40
2016,09,21,13,37,18.40
2016,09,21,13,38,18.40
2016,09,21,13,39,18.50
2016,09,21,13,40,18.60
2016,09,21,13,41,18.60
2016,09,21,13,42,18.60
2016,09,21,13,43,18.60
2016,09,21,13,44,18.60
2016,09,21,13,45,18.70
2016,09,21,13,46,18.70
2016,09,21,13,47,18.70
2016,09,21,13,48,18.70
2016,09,21,13,49,18.70
2016,09,21,13,50,18.60
2016,09,21,13,51,18.60
2016,09,21,13,52,18.60
2016,09,21,13,53,18.70
2016,09,21,13,54,18.70
2016,09,21,13,55,18.70
2016,09,21,13,56,18.80
2016,09,21,13,57,18.80
2016,09,21,13,58,18.80
2016,09,21,13,59,18.70
2016,09,21,14,00,18.70
2016,09,21,14,01,18.70
2016,09,21,14,02,18.80
2016,09,21,14,03,18.80
2016,09,21,14,04,18.90
2016,09,21,14,05,19.00
2016,09,21,14,06,19.10
2016,09,21,14,07,19.10
2016,09,21,14,08,19.10
2016,09,21,14,09,19.00
2016,09,21,14,10,18.90
2016,09,21,14,11,18.80
2016,09,21,14,12,18.80
2016,09,21,14,13,18.80
2016,09,21,14,14,18.80
2016,09,21,14,15,18.80
2016,09,21,14,16,18.70
2016,09,21,14,17,18.80
2016,09,21,14,18,18.90
2016,09,21,14,19,18.90
2016,09,21,14,20,18.90
2016,09,21,14,21,19.00
2016,09,21,14,22,19.10
2016,09,21,14,23,19.10
2016,09,21,14,24,19.10
2016,09,21,14,25,19.10
2016,09,21,14,26,19.20
2016,09,21,14,27,19.20
2016,09,21,14,28,19.30
2016,09,21,14,29,19.30
2016,09,21,14,30,19.30
2016,09,21,14,31,19.20
2016,09,21,14,32,19.20
2016,09,21,14,33,19.20
2016,09,21,14,34,19.20
2016,09,21,14,35,19.20
2016,09,21,14,36,19.20
2016,09,21,14,37,19.20
2016,09,21,14,38,19.30
2016,09,21,14,39,19.30
2016,09,21,14,40,19.30
2016,09,21,14,41,19.30
2016,09,21,14,42,19.30
2016,09,21,14,43,19.40
2016,09,21,14,44,19.50
2016,09,21,14,45,19.50
2016,09,21,14,46,19.50
2016,09,21,14,47,19.50
2016,09,21,14,48,19.40
2016,09,21,14,49,19.30
2016,09,21,14,50,19.20
2016,09,21,14,51,19.10
2016,09,21,14,52,19.10
2016,09,21,14,53,19.10
2016,09,21,14,54,19.10
2016,09,21,14,55,19.20
2016,09,21,14,56,19.20
2016,09,21,14,57,19.20
2016,09,21,14,58,19.20
2016,09,21,14,59,19.30
2016,09,21,15,00,19.20
2016,09,21,15,01,19.20
2016,09,21,15,02,19.20
2016,09,21,15,03,19.20
2016,09,21,15,04,19.20
2016,09,21,15,05,19.20
2016,09,21,15,06,19.20
2016,09,21,15,07,19.20
2016,09,21,15,08,19.20
2016,09,21,15,09,19.10
2016,09,21,15,10,19.10
2016,09,21,15,11,19.10
2016,09,21,15,12,19.10
2016,09,21,15,13,19.00
2016,09,21,15,14,19.00
2016,09,21,15,15,18.90
2016,09,21,15,16,19.00
2016,09,21,15,17,18.90
2016,09,21,15,18,18.90
2016,09,21,15,19,18.90
2016,09,21,15,20,18.90
2016,09,21,15,21,18.90
2016,09,21,15,22,18.90
2016,09,21,15,23,18.90
2016,09,21,15,24,18.90
2016,09,21,15,25,19.00
2016,09,21,15,26,18.90
2016,09,21,15,27,18.90
2016,09,21,15,28,18.90
2016,09,21,15,29,19.00
2016,09,21,15,30,19.00
2016,09,21,15,31,19.00
2016,09,21,15,32,18.90
2016,09,21,15,33,18.90
2016,09,21,15,34,18.90
2016,09,21,15,35,18.90
2016,09,21,15,36,19.00
2016,09,21,15,37,19.00
2016,09,21,15,38,19.00
2016,09,21,15,39,19.00
2016,09,21,15,40,19.10
2016,09,21,15,41,19.10
2016,09,21,15,42,19.20
2016,09,21,15,43,19.20
2016,09,21,15,44,19.20
2016,09,21,15,45,19.20
2016,09,21,15,46,19.20
2016,09,21,15,47,19.20
2016,09,21,15,48,19.20
2016,09,21,15,49,19.20
2016,09,21,15,50,19.20
2016,09,21,15,51,19.30
2016,09,21,15,52,19.30
2016,09,21,15,53,19.40
2016,09,21,15,54,19.40
2016,09,21,15,55,19.40
2016,09,21,15,56,19.40
2016,09,21,15,57,19.30
2016,09,21,15,58,19.30
2016,09,21,15,59,19.30
2016,09,21,16,00,19.30
2016,09,21,16,01,19.20
2016,09,21,16,02,19.30
2016,09,21,16,03,19.30
2016,09,21,16,04,19.30
2016,09,21,16,05,19.20
2016,09,21,16,06,19.20
2016,09,21,16,07,19.20
2016,09,21,16,08,19.20
2016,09,21,16,09,19.20
2016,09,21,16,10,19.20
2016,09,21,16,11,19.20
2016,09,21,16,12,19.20
2016,09,21,16,13,19.20
2016,09,21,16,14,19.20
2016,09,21,16,15,19.20
2016,09,21,16,16,19.20
2016,09,21,16,17,19.20
2016,09,21,16,18,19.20
2016,09,21,16,19,19.20
2016,09,21,16,20,19.20
2016,09,21,16,21,19.20
2016,09,21,16,22,19.20
2016,09,21,16,23,19.20
2016,09,21,16,24,19.10
2016,09,21,16,25,19.10
2016,09,21,16,26,19.10
2016,09,21,16,27,19.10
2016,09,21,16,28,19.10
2016,09,21,16,29,19.10
2016,09,21,16,30,19.00
2016,09,21,16,31,18.90
2016,09,21,16,32,18.90
2016,09,21,16,33,18.90
2016,09,21,16,34,18.90
2016,09,21,16,35,18.90
2016,09,21,16,36,18.90
2016,09,21,16,37,18.80
2016,09,21,16,38,18.80
2016,09,21,16,39,18.80
2016,09,21,16,40,18.70
2016,09,21,16,41,18.60
2016,09,21,16,42,18.70
2016,09,21,16,43,18.70
2016,09,21,16,44,18.70
2016,09,21,16,45,18.70
2016,09,21,16,46,18.70
2016,09,21,16,47,18.70
2016,09,21,16,48,18.70
2016,09,21,16,49,18.70
2016,09,21,16,50,18.60
2016,09,21,16,51,18.60
2016,09,21,16,52,18.60
2016,09,21,16,53,18.50
2016,09,21,16,54,18.50
2016,09,21,16,55,18.50
2016,09,21,16,56,18.50
2016,09,21,16,57,18.50
2016,09,21,16,58,18.60
2016,09,21,16,59,18.60
2016,09,21,17,00,18.60
2016,09,21,17,01,18.50
2016,09,21,17,02,18.50
2016,09,21,17,03,18.40
2016,09,21,17,04,18.40
2016,09,21,17,05,18.40
2016,09,21,17,06,18.40
2016,09,21,17,07,18.40
2016,09,21,17,08,18.50
2016,09,21,17,09,18.60
2016,09,21,17,10,18.60
2016,09,21,17,11,18.60
2016,09,21,17,12,18.60
2016,09,21,17,13,18.50
2016,09,21,17,14,18.50
2016,09,21,17,15,18.40
2016,09,21,17,16,18.30
2016,09,21,17,17,18.20
2016,09,21,17,18,18.10
2016,09,21,17,19,18.00
2016,09,21,17,20,17.90
2016,09,21,17,21,17.80
2016,09,21,17,22,17.80
2016,09,21,17,23,17.70
2016,09,21,17,24,17.70
2016,09,21,17,25,17.60
2016,09,21,17,26,17.70
2016,09,21,17,27,17.70
2016,09,21,17,28,17.70
2016,09,21,17,29,17.70
2016,09,21,17,30,17.70
2016,09,21,17,31,17.70
2016,09,21,17,32,17.70
2016,09,21,17,33,17.70
2016,09,21,17,34,17.60
2016,09,21,17,35,17.60
2016,09,21,17,36,17.60
2016,09,21,17,37,17.60
2016,09,21,17,38,17.50
2016,09,21,17,39,17.50
2016,09,21,17,40,17.40
2016,09,21,17,41,17.40
2016,09,21,17,42,17.40
2016,09,21,17,43,17.40
2016,09,21,17,44,17.30